Flag for U.S.A. Weather past 2 weeks in Cleveland, Tennessee, U.S.A.

Now
37 °F

Rain. Partly sunny.


Feels Like: 32 °F
Forecast: 33 / 45 °F
Wind: 7 mph from Northeast

Location: Lovell Field

Current Time: Dec 18, 2014 at 8:41:36 AM

Latest Report: Dec 18, 2014 at 7:53 AM


Visibility: 10 mi

Pressure: 30.23 "Hg

Humidity: 76%

Dew point: 30 °F

Location of ClevelandLocation

Historic Weather in Cleveland — Graph

°F

Cleveland temperature yesterday

Maximum temperature yesterday: 49 °F (at 1:53 PM)
Minimum temperature yesterday: 34 °F (at 11:53 PM)
Average temperature yesterday: 43 °F

Past Weeks' High & Low Weather Summary

 TemperatureHumidityPressure
High65 °F (Dec 3, 1:53 PM)100% (Dec 16, 4:53 AM)30.44 "Hg (Dec 16, 4:53 AM)
Low27 °F (Dec 15, 7:53 AM)30% (Dec 12, 2:53 PM)29.89 "Hg (Dec 16, 4:00 AM)
Average45 °F74%30.22 "Hg
* Reported Dec 3 6:53 AM — Dec 18 6:53 AM, Cleveland, Weather by CustomWeather, © 2014

Note: Actual official high and low records may vary slightly from our data, if they occured in-between our weather recording intervals... More about our weather records

Advertising

Cleveland weather history for previous 24 hours

 ConditionsComfort  
Time TempWeatherWind HumidityBarometerVisibility
6:53 AM
Dec 18
38 °FPassing clouds.7 mph73%30.24 "Hg10 mi
5:53 AM38 °FPassing clouds.5 mph73%30.22 "Hg10 mi
4:53 AM37 °FClear.6 mph79%30.22 "Hg10 mi
3:53 AM37 °FPassing clouds.6 mph76%30.21 "Hg10 mi
2:53 AM36 °FClear.7 mph79%30.22 "Hg10 mi
1:53 AM36 °FClear.5 mph79%30.21 "Hg10 mi
12:53 AM36 °FClear.5 mph82%30.20 "Hg10 mi
11:53 PM
Dec 17
34 °FHigh level clouds.3 mph88%30.24 "Hg10 mi
10:53 PM37 °FHigh level clouds.No wind82%30.23 "Hg10 mi
9:53 PM39 °FPassing clouds.3 mph76%30.22 "Hg10 mi
8:53 PM38 °FPassing clouds.3 mph79%30.23 "Hg10 mi
7:53 PM40 °FPassing clouds.6 mph77%30.23 "Hg10 mi
6:53 PM43 °FPassing clouds.9 mph71%30.23 "Hg10 mi
5:53 PM44 °FPassing clouds.7 mph68%30.21 "Hg10 mi
4:53 PM45 °FOvercast.9 mph65%30.20 "Hg10 mi
3:53 PM46 °FOvercast.7 mph63%30.19 "Hg10 mi
2:53 PM48 °FBroken clouds.6 mph61%30.19 "Hg10 mi
1:53 PM49 °FPartly sunny.6 mph61%30.20 "Hg10 mi
12:53 PM47 °FOvercast.7 mph61%30.23 "Hg10 mi
11:53 AM45 °FOvercast.8 mph68%30.26 "Hg10 mi
10:53 AM44 °FOvercast.10 mph71%30.27 "Hg10 mi
9:53 AM43 °FOvercast.9 mph74%30.28 "Hg10 mi
8:53 AM43 °FOvercast.9 mph76%30.26 "Hg10 mi
Weather by CustomWeather, © 2014

See weather overviewHow to use our weather pages